User: anonymous   Login
Location: South Tamworth Observatory
(43.8246°N, 71.3026°W)
Time: 22:33:42
(UTC-04:00)
Language:

Cosmos 1844 - Orbit

View from above orbital plane
View from above orbital plane
View from above satellite
View from above satellite

Ground track
Ground track

The orbit data is extracted from the following two-line orbital elements,

1 17973U 87041A   15242.51627048 -.00000154  00000-0 -55577-4 0  9999
2 17973 070.8982 217.4921 0030066 026.1273 334.1358 14.14007649460312
Epoch (UTC): 30 August 2015 12:23:25
Eccentricity: 0.0030066
inclination: 70.8982°
perigee height: 824 km
apogee height: 867 km
right ascension of ascending node: 217.4921°
argument of perigee: 26.1273°
revolutions per day: 14.14007649
mean anomaly at epoch: 334.1358°
orbit number at epoch: 46031

The dashed part of the orbit path shows where the satellite is in the earth's shadow,  

DLR